Flag for Germany Weather past 2 weeks in Weißenfels, Saxony-Anhalt, Germany

Now
70 °F

Partly sunny.


Feels Like: 74 °F
Forecast: 60 / 90 °F
Wind: 3 mph from East

Location: Leipzig-Schkeuditz

Current Time: Aug 29, 2015 at 9:03:37 PM

Latest Report: Aug 29, 2015 at 8:00 PM


Visibility: 25 mi

Pressure: 30.17 "Hg

Humidity: 71%

Dew point: 60 °F

Location of WeißenfelsLocation

Historic Weather in Weißenfels — Graph

°F

Weißenfels temperature yesterday

Maximum temperature yesterday: 66 °F (at 6:00 PM)
Minimum temperature yesterday: 57 °F (at 8:00 AM)
Average temperature yesterday: 62 °F

Past Weeks' High & Low Weather Summary

 TemperatureHumidityPressure
High82 °F (Aug 15, 4:00 PM)98% (Aug 18, 1:00 AM)30.30 "Hg (Aug 18, 1:00 AM)
Low53 °F (Aug 21, 6:00 AM)27% (Aug 22, 5:00 PM)29.68 "Hg (Aug 14, 9:00 PM)
Average66 °F75%29.99 "Hg
* Reported Aug 14 8:00 PM — Aug 29 8:00 PM, Weißenfels, Weather by CustomWeather, © 2015

Note: Actual official high and low records may vary slightly from our data, if they occured in-between our weather recording intervals... More about our weather records

Advertising

Weißenfels weather history for previous 24 hours

 ConditionsComfort  
Time TempWeatherWind HumidityBarometerVisibility
8:00 PM
Sat, Aug 29
70 °FPartly sunny.3 mph71%30.17 "Hg25 mi
7:00 PM74 °FPartly sunny.3 mph62%30.17 "Hg31 mi
6:00 PM74 °FScattered clouds.3 mph59%30.18 "Hg31 mi
5:00 PM74 °FScattered clouds.2 mph59%30.20 "Hg31 mi
4:00 PM73 °FScattered clouds.3 mph61%30.22 "Hg28 mi
3:00 PM71 °FPartly sunny.2 mph66%30.24 "Hg19 mi
2:00 PM69 °FPartly sunny.5 mph69%30.25 "Hg16 mi
1:00 PM69 °FPartly sunny.5 mph69%30.26 "Hg16 mi
12:00 PM69 °FScattered clouds.5 mph64%30.27 "Hg16 mi
10:00 AM64 °FPartly sunny.2 mph83%30.28 "Hg9 mi
9:00 AM61 °FScattered clouds.1 mph89%30.26 "Hg6 mi
8:00 AM56 °FFog.1 mph98%30.27 "Hg6 mi
7:00 AM53 °FFog.1 mph94%30.26 "Hg5 mi
6:00 AM54 °FFog.1 mph94%30.24 "Hg2 mi
5:00 AM55 °FFog.1 mph93%30.22 "Hg3 mi
4:00 AM57 °FFog.2 mph96%30.22 "Hg4 mi
3:00 AM58 °FClear.3 mph96%30.21 "Hg12 mi
2:00 AM59 °FPassing clouds.3 mph95%30.20 "Hg12 mi
1:00 AM60 °FPassing clouds.2 mph95%30.19 "Hg19 mi
11:00 PM
Fri, Aug 28
61 °FClear.3 mph93%30.17 "Hg25 mi
10:00 PM62 °FPassing clouds.2 mph88%30.15 "Hg25 mi
9:00 PM64 °FPassing clouds.2 mph84%30.14 "Hg28 mi
Weather by CustomWeather, © 2015

See weather overviewHow to use our weather pages